CW1084 Weather Reports


Display with metric or nautical units.
time (UTC)temp
F
wind
direction
speed
MPH
gust
MPH
rain 1hr
in
rain 24hr
in
rain mn
in
humidity
%
barometer
mb
20260902024026 86 227 0.0 0.0 0.00 0.00 0.00 100 1013.4
20260902023520 86 227 0.0 0.0 0.00 0.00 0.00 100 1013.4
20260902023447 86 227 0.0 0.0 0.00 0.00 0.00 100 1013.6
20260902022436 86 227 0.0 0.0 0.00 0.00 0.00 100 1013.5
20260902021933 86 227 0.0 0.0 0.00 0.00 0.00 100 1013.6
20260902021430 86 227 0.0 0.0 0.00 0.00 0.00 100 1013.6
20260902020928 86 227 0.0 0.0 0.00 0.00 0.00 100 1013.5
20260902020415 86 227 0.0 0.0 0.00 0.00 0.00 100 1013.5
20260902015909 86 227 0.0 0.0 0.00 0.00 0.00 100 1013.4
20260902015356 86 227 0.0 0.0 0.00 0.00 0.00 100 1013.3
20260902015111 86 227 0.0 0.0 0.00 0.00 0.00 100 1013.4
20260902014521 85 227 0.0 0.0 0.00 0.00 0.00 100 1013.2
20260902014407 86 227 0.0 0.0 0.00 0.00 0.00 100 1013.2
20260902013259 85 227 0.0 0.0 0.00 0.00 0.00 100 1013.2
20260902012802 85 227 0.0 0.0 0.00 0.00 0.00 100 1013.2
20260902012259 85 228 0.0 0.0 0.00 0.00 0.00 100 1013.2
20260902011804 85 227 0.0 0.0 0.00 0.00 0.00 100 1013.1
20260902011247 85 227 0.0 0.0 0.00 0.00 0.00 100 1013.1
20260902011014 85 228 0.0 0.0 0.00 0.00 0.00 100 1013.0
20260902010739 85 228 0.0 0.0 0.00 0.00 0.00 100 1013.0
20260902005720 85 228 0.0 0.0 0.00 0.00 0.00 100 1013.0
20260902005221 85 228 0.0 0.0 0.00 0.00 0.00 100 1012.8
20260902004709 85 228 0.0 0.0 0.00 0.00 0.00 100 1012.7
20260902004157 84 228 0.0 1.0 0.00 0.00 0.00 100 1012.5
20260902003650 84 228 0.0 1.0 0.00 0.00 0.00 100 1012.3
20260902003142 85 228 0.0 0.0 0.00 0.00 0.00 100 1012.1
20260902002855 85 228 0.0 0.0 0.00 0.00 0.00 100 1012.2
20260902002123 85 228 0.0 0.0 0.00 0.00 0.00 100 1012.2
20260902001622 85 228 0.0 0.0 0.00 0.00 0.00 100 1012.2
20260902001111 85 228 0.0 0.0 0.00 0.00 0.00 100 1012.3
20260902000827 85 228 0.0 0.0 0.00 0.00 0.00 100 1012.3
20260902000112 85 228 0.0 0.0 0.00 0.00 0.00 100 1012.3
20260901235547 86 228 0.0 0.0 0.00 0.00 0.00 100 1012.2
20260901235037 86 228 0.0 0.0 0.00 0.00 0.00 100 1012.3
20260901234532 86 228 0.0 0.0 0.00 0.00 0.00 100 1012.2
20260901234039 86 228 0.0 0.0 0.00 0.00 0.00 100 1012.3
20260901233520 86 228 0.0 0.0 0.00 0.00 0.00 100 1012.5
20260901233008 87 228 0.0 0.0 0.00 0.00 0.00 100 1012.4
20260901232521 87 228 0.0 0.0 0.00 0.00 0.00 100 1012.5
20260901231952 87 228 0.0 0.0 0.00 0.00 0.00 100 1012.5
20260901231447 87 228 0.0 0.0 0.00 0.00 0.00 100 1012.5
20260901230943 88 228 0.0 0.0 0.00 0.00 0.00 100 1012.5
20260901230434 88 228 0.0 0.0 0.00 0.00 0.00 100 1012.6
20260901225924 89 228 0.0 0.0 0.00 0.00 0.00 100 1012.5
20260901225410 89 228 0.0 0.0 0.00 0.00 0.00 1 1012.6
20260901224909 89 228 0.0 0.0 0.00 0.00 0.00 1 1012.7
20260901224402 90 228 0.0 0.0 0.00 0.00 0.00 4 1012.7
20260901223904 90 228 0.0 0.0 0.00 0.00 0.00 4 1012.8
20260901223354 90 228 0.0 0.0 0.00 0.00 0.00 4 1012.8
20260901222853 91 228 0.0 0.0 0.00 0.00 0.00 6 1012.7
20260901222326 91 228 0.0 0.0 0.00 0.00 0.00 7 1012.8
20260901221823 91 228 0.0 0.0 0.00 0.00 0.00 7 1012.7
20260901221328 92 228 0.0 0.0 0.00 0.00 0.00 7 1012.7
20260901220808 92 228 0.0 0.0 0.00 0.00 0.00 7 1012.8
20260901220259 92 228 0.0 0.0 0.00 0.00 0.00 8 1012.8
20260901215756 93 228 0.0 0.0 0.00 0.00 0.00 8 1012.8
20260901215256 93 228 0.0 0.0 0.00 0.00 0.00 8 1012.9
20260901215246 93 228 0.0 0.0 0.00 0.00 0.00 8 1012.9
20260901214232 93 228 0.0 0.0 0.00 0.00 0.00 7 1013.0
20260901213725 94 228 0.0 0.0 0.00 0.00 0.00 6 1013.1
20260901213220 94 228 0.0 0.0 0.00 0.00 0.00 5 1013.1
20260901212722 94 228 0.0 0.0 0.00 0.00 0.00 5 1013.1
20260901212208 94 228 0.0 0.0 0.00 0.00 0.00 5 1013.1
20260901211710 94 228 0.0 0.0 0.00 0.00 0.00 5 1013.1
20260901211209 93 228 0.0 0.0 0.00 0.00 0.00 5 1013.1
20260901210705 93 228 0.0 0.0 0.00 0.00 0.00 6 1013.2
20260901210159 93 228 0.0 0.0 0.00 0.00 0.00 5 1013.1
20260901205657 93 228 0.0 0.0 0.00 0.00 0.00 5 1013.2
20260901205421 93 228 0.0 0.0 0.00 0.00 0.00 4 1013.2
20260901204659 92 228 0.0 0.0 0.00 0.00 0.00 4 1013.2
20260901204154 92 228 0.0 0.0 0.00 0.00 0.00 4 1013.2
20260901203639 92 228 0.0 0.0 0.00 0.00 0.00 4 1013.2
20260901203139 92 228 0.0 0.0 0.00 0.00 0.00 4 1013.3
20260901202631 91 228 0.0 0.0 0.00 0.00 0.00 4 1013.3
20260901202125 91 228 0.0 0.0 0.00 0.00 0.00 3 1013.2
20260901201624 91 228 0.0 0.0 0.00 0.00 0.00 3 1013.3
20260901201116 91 228 0.0 0.0 0.00 0.00 0.00 3 1013.4
20260901200613 90 228 0.0 0.0 0.00 0.00 0.00 4 1013.6
20260901200346 91 228 0.0 0.0 0.00 0.00 0.00 5 1013.6
20260901195835 91 228 0.0 0.0 0.00 0.00 0.00 6 1013.7
20260901195105 91 228 0.0 0.0 0.00 0.00 0.00 6 1013.7
20260901194602 92 228 0.0 0.0 0.00 0.00 0.00 8 1013.8
20260901194048 92 228 0.0 0.0 0.00 0.00 0.00 10 1013.9
20260901193545 92 228 0.0 0.0 0.00 0.00 0.00 11 1013.9
20260901193035 93 228 0.0 0.0 0.00 0.00 0.00 11 1013.9
20260901192533 93 228 0.0 0.0 0.00 0.00 0.00 11 1013.9
20260901192022 93 228 0.0 2.0 0.00 0.00 0.00 11 1013.7
20260901191509 93 228 0.0 2.0 0.00 0.00 0.00 10 1013.8
20260901191013 93 228 0.0 1.0 0.00 0.00 0.00 10 1013.8
20260901190441 93 228 0.0 0.0 0.00 0.00 0.00 10 1013.9
20260901185936 93 228 0.0 0.0 0.00 0.00 0.00 11 1013.8
20260901185437 93 228 0.0 3.0 0.00 0.00 0.00 10 1013.9
20260901184927 93 228 0.0 3.0 0.00 0.00 0.00 12 1013.9
20260901184654 93 228 0.0 0.0 0.00 0.00 0.00 11 1014.1
20260901183919 94 228 0.0 0.0 0.00 0.00 0.00 10 1014.1
20260901183418 94 228 0.0 3.0 0.00 0.00 0.00 11 1014.1
20260901182913 94 228 0.0 3.0 0.00 0.00 0.00 11 1014.0
20260901182636 94 228 0.0 3.0 0.00 0.00 0.00 10 1014.0
20260901181902 94 228 0.0 6.0 0.00 0.00 0.00 9 1013.9
20260901181400 94 228 1.0 6.0 0.00 0.00 0.00 10 1014.0
20260901180858 94 228 0.0 5.0 0.00 0.00 0.00 9 1014.0
20260901180355 94 228 0.0 3.0 0.00 0.00 0.00 8 1014.1
20260901175858 93 228 1.0 4.0 0.00 0.00 0.00 8 1014.2
20260901175351 93 228 1.0 5.0 0.00 0.00 0.00 7 1014.3
20260901174844 93 228 1.0 5.0 0.00 0.00 0.00 5 1014.3
20260901174341 93 228 1.0 5.0 0.00 0.00 0.00 5 1014.2
20260901173851 93 228 1.0 5.0 0.00 0.00 0.00 4 1014.2
20260901173618 93 227 1.0 7.0 0.00 0.00 0.00 3 1014.2
20260901172841 92 227 1.0 7.0 0.00 0.00 0.00 1 1014.1
20260901172332 92 229 0.0 3.0 0.00 0.00 0.00 100 1014.1
20260901171829 92 229 0.0 5.0 0.00 0.00 0.00 100 1014.2
20260901171609 92 229 1.0 5.0 0.00 0.00 0.00 100 1014.1
20260901171053 92 228 1.0 5.0 0.00 0.00 0.00 100 1014.1
20260901170320 91 228 1.0 5.0 0.00 0.00 0.00 100 1014.2
20260901165819 91 227 0.0 4.0 0.00 0.00 0.00 100 1014.3
20260901165313 90 227 0.0 4.0 0.00 0.00 0.00 100 1014.5
20260901165051 90 227 0.0 3.0 0.00 0.00 0.00 100 1014.6
20260901164309 90 227 0.0 3.0 0.00 0.00 0.00 100 1014.6
20260901163805 89 227 0.0 3.0 0.00 0.00 0.00 100 1014.6
20260901163259 89 227 0.0 3.0 0.00 0.00 0.00 100 1014.7
20260901162747 89 227 0.0 4.0 0.00 0.00 0.00 100 1014.8
20260901162242 89 227 1.0 4.0 0.00 0.00 0.00 100 1014.8
20260901161736 89 227 1.0 4.0 0.00 0.00 0.00 100 1014.9
20260901161243 89 227 0.0 4.0 0.00 0.00 0.00 100 1015.0
20260901160749 89 227 0.0 4.0 0.00 0.00 0.00 100 1015.0
20260901160238 89 227 0.0 4.0 0.00 0.00 0.00 100 1015.0
20260901155733 89 227 0.0 4.0 0.00 0.00 0.00 100 1015.0
20260901155224 89 227 1.0 4.0 0.00 0.00 0.00 100 1015.0
20260901154945 89 227 1.0 4.0 0.00 0.00 0.00 100 1015.1
20260901154224 89 227 1.0 4.0 0.00 0.00 0.00 100 1015.2
20260901153943 89 227 0.0 3.0 0.00 0.00 0.00 100 1015.2
20260901153212 88 227 0.0 4.0 0.00 0.00 0.00 100 1015.2
20260901152948 88 227 0.0 4.0 0.00 0.00 0.00 100 1015.3
20260901152207 88 227 0.0 6.0 0.00 0.00 0.00 100 1015.2
20260901151944 88 227 1.0 7.0 0.00 0.00 0.00 100 1015.3
20260901151435 87 227 1.0 7.0 0.00 0.00 0.00 100 1015.3
20260901150653 87 227 1.0 4.0 0.00 0.00 0.00 100 1015.3
20260901150153 87 227 0.0 4.0 0.00 0.00 0.00 100 1015.4
20260901145913 87 227 0.0 6.0 0.00 0.00 0.00 100 1015.4
20260901145146 87 227 1.0 6.0 0.00 0.00 0.00 100 1015.4
20260901144642 87 228 1.0 6.0 0.00 0.00 0.00 100 1015.5
20260901144137 87 228 1.0 6.0 0.00 0.00 0.00 100 1015.5
20260901143635 87 228 0.0 4.0 0.00 0.00 0.00 100 1015.4
20260901143122 87 228 0.0 1.0 0.00 0.00 0.00 100 1015.4
20260901142617 86 228 1.0 6.0 0.00 0.00 0.00 100 1015.4
20260901142110 86 228 1.0 6.0 0.00 0.00 0.00 100 1015.4
20260901141828 86 227 1.0 7.0 0.00 0.00 0.00 100 1015.4
20260901141103 86 227 1.0 7.0 0.00 0.00 0.00 100 1015.3
20260901140826 86 225 1.0 6.0 0.00 0.00 0.00 100 1015.3
20260901140110 87 225 1.0 6.0 0.00 0.00 0.00 100 1015.4
20260901135533 87 220 1.0 7.0 0.00 0.00 0.00 100 1015.5
20260901135036 87 220 1.0 7.0 0.00 0.00 0.00 100 1015.5
20260901134533 87 194 1.0 5.0 0.00 0.00 0.00 100 1015.5
20260901134256 86 194 0.0 5.0 0.00 0.00 0.00 100 1015.4
20260901133524 85 182 0.0 2.0 0.00 0.00 0.00 100 1015.6
20260901133001 85 182 0.0 2.0 0.00 0.00 0.00 100 1015.5
20260901132504 84 182 0.0 0.0 0.00 0.00 0.00 100 1015.6
20260901131959 84 182 0.0 0.0 0.00 0.00 0.00 100 1015.6
20260901131449 84 182 0.0 2.0 0.00 0.00 0.00 100 1015.6
20260901131213 84 182 0.0 4.0 0.00 0.00 0.00 100 1015.6
20260901130703 83 182 0.0 4.0 0.00 0.00 0.00 100 1015.7
20260901125933 83 180 0.0 1.0 0.00 0.00 0.00 100 1015.7
20260901125912 83 180 0.0 1.0 0.00 0.00 0.00 100 1015.7
20260901125143 82 180 0.0 0.0 0.00 0.00 0.00 100 1015.8
20260901124409 82 180 0.0 4.0 0.00 0.00 0.00 100 1015.8
20260901123909 82 180 0.0 4.0 0.00 0.00 0.00 100 1015.8
20260901123402 81 180 0.0 4.0 0.00 0.00 0.00 100 1015.8
20260901122858 81 180 0.0 4.0 0.00 0.00 0.00 100 1015.8
20260901122620 80 180 0.0 2.0 0.00 0.00 0.00 100 1015.8
20260901121856 80 180 0.0 3.0 0.00 0.00 0.00 100 1015.8
20260901121340 80 180 0.0 3.0 0.00 0.00 0.00 100 1015.8
20260901120839 79 180 0.0 0.0 0.00 0.00 0.00 100 1015.8
20260901120336 79 179 0.0 0.0 0.00 0.00 0.00 100 1015.8
20260901115834 79 180 0.0 3.0 0.00 0.00 0.00 100 1015.8
20260901115332 79 180 0.0 3.0 0.00 0.00 0.00 100 1015.7
20260901115053 78 172 0.0 0.0 0.00 0.00 0.00 100 1015.7
20260901114325 78 172 0.0 1.0 0.00 0.00 0.00 100 1015.7
20260901113820 78 172 0.0 5.0 0.00 0.00 0.00 100 1015.7
20260901113302 78 168 0.0 2.0 0.00 0.00 0.00 100 1015.7
20260901112815 78 168 0.0 2.0 0.00 0.00 0.00 100 1015.6
20260901112253 78 168 0.0 0.0 0.00 0.00 0.00 100 1015.5
20260901111748 78 168 0.0 0.0 0.00 0.00 0.00 100 1015.4
20260901111243 78 168 0.0 0.0 0.00 0.00 0.00 100 1015.4
20260901110742 78 168 0.0 0.0 0.00 0.00 0.00 100 1015.4
20260901110223 78 168 0.0 0.0 0.00 0.00 0.00 100 1015.2
20260901105722 78 168 0.0 0.0 0.00 0.00 0.00 100 1015.1
20260901105431 78 168 0.0 0.0 0.00 0.00 0.00 100 1015.1
20260901104706 78 168 0.0 0.0 0.00 0.00 0.00 100 1015.0
20260901104203 78 168 0.0 0.0 0.00 0.00 0.00 100 1015.1
20260901104152 78 168 0.0 0.0 0.00 0.00 0.00 100 1015.0
20260901103143 78 169 0.0 0.0 0.00 0.00 0.00 100 1015.1
20260901102653 78 168 0.0 0.0 0.00 0.00 0.00 100 1015.2
20260901102642 78 168 0.0 0.0 0.00 0.00 0.00 100 1015.1
20260901101648 78 169 0.0 0.0 0.00 0.00 0.00 100 1015.3
20260901101141 78 168 0.0 0.0 0.00 0.00 0.00 100 1015.4
20260901100632 78 168 0.0 0.0 0.00 0.00 0.00 100 1015.3
20260901100130 78 169 0.0 0.0 0.00 0.00 0.00 100 1015.3
20260901095631 78 168 0.0 0.0 0.00 0.00 0.00 100 1015.3
20260901095128 78 168 0.0 0.0 0.00 0.00 0.00 100 1015.2
20260901094621 78 169 0.0 0.0 0.00 0.00 0.00 100 1015.2
20260901094123 78 168 0.0 0.0 0.00 0.00 0.00 100 1015.2
20260901093830 78 169 0.0 0.0 0.00 0.00 0.00 100 1015.2
20260901093333 79 169 0.0 0.0 0.00 0.00 0.00 100 1015.2
20260901092558 79 169 0.0 0.0 0.00 0.00 0.00 100 1015.2
20260901092327 79 169 0.0 0.0 0.00 0.00 0.00 100 1015.2
20260901091548 79 169 0.0 0.0 0.00 0.00 0.00 100 1015.2
20260901091038 79 169 0.0 0.0 0.00 0.00 0.00 100 1015.2
20260901090536 79 169 0.0 0.0 0.00 0.00 0.00 100 1015.2
20260901090018 79 169 0.0 0.0 0.00 0.00 0.00 100 1015.2
20260901085504 79 169 0.0 0.0 0.00 0.00 0.00 100 1015.2
20260901084955 79 169 0.0 0.0 0.00 0.00 0.00 100 1015.2
20260901084451 79 169 0.0 3.0 0.00 0.00 0.00 100 1015.1
20260901083943 79 169 0.0 3.0 0.00 0.00 0.00 100 1015.1
20260901083437 80 167 0.0 1.0 0.00 0.00 0.00 100 1015.1
20260901082933 80 163 0.0 0.0 0.00 0.00 0.00 100 1015.1
20260901082414 80 163 0.0 0.0 0.00 0.00 0.00 100 1015.2
20260901081907 80 163 0.0 0.0 0.00 0.00 0.00 100 1015.3
20260901081355 80 163 0.0 0.0 0.00 0.00 0.00 100 1015.2
20260901081108 80 163 0.0 0.0 0.00 0.00 0.00 100 1015.3
20260901080328 80 163 0.0 0.0 0.00 0.00 0.00 100 1015.3
20260901075827 80 163 0.0 0.0 0.00 0.00 0.00 100 1015.4
20260901075320 80 163 0.0 0.0 0.00 0.00 0.00 100 1015.4
20260901075046 80 162 0.0 0.0 0.00 0.00 0.00 100 1015.4
20260901074308 80 162 0.0 0.0 0.00 0.00 0.00 100 1015.4
20260901073755 80 162 0.0 0.0 0.00 0.00 0.00 100 1015.4
20260901073742 80 162 0.0 0.0 0.00 0.00 0.00 100 1015.4
20260901072739 80 162 0.0 0.0 0.00 0.00 0.00 100 1015.4
20260901072231 80 160 0.0 0.0 0.00 0.00 0.00 100 1015.5
20260901071731 80 160 0.0 0.0 0.00 0.00 0.00 100 1015.5
20260901071214 80 160 0.0 0.0 0.00 0.00 0.00 100 1015.5
20260901070658 80 160 0.0 0.0 0.00 0.00 0.00 100 1015.5
20260901070203 80 160 0.0 0.0 0.00 0.00 0.00 100 1015.5
20260901065908 80 132 0.0 0.0 0.00 0.00 0.00 100 1015.5
20260901065128 80 131 0.0 0.0 0.00 0.00 0.00 100 1015.5
20260901064626 80 131 0.0 0.0 0.00 0.00 0.00 100 1015.5
20260901064121 80 131 0.0 0.0 0.00 0.00 0.00 100 1015.6
20260901063608 80 131 0.0 0.0 0.00 0.00 0.00 100 1015.6
20260901063341 80 131 0.0 0.0 0.00 0.00 0.00 100 1015.7
20260901062554 80 131 0.0 0.0 0.00 0.00 0.00 100 1015.7
20260901062050 80 131 0.0 0.0 0.00 0.00 0.00 100 1015.7
20260901061551 80 131 0.0 0.0 0.00 0.00 0.00 100 1015.7
20260901061054 80 131 0.0 0.0 0.00 0.00 0.00 100 1015.8
20260901060541 80 131 0.0 0.0 0.00 0.00 0.00 100 1015.8
20260901060019 80 131 0.0 0.0 0.00 0.00 0.00 100 1015.8
20260901055517 80 131 0.0 0.0 0.00 0.00 0.00 100 1015.9
20260901055013 80 131 0.0 0.0 0.00 0.00 0.00 100 1016.0
20260901054511 81 131 0.0 0.0 0.00 0.00 0.00 100 1016.1
20260901054012 81 131 0.0 0.0 0.00 0.00 0.00 100 1016.2
20260901053506 81 131 0.0 0.0 0.00 0.00 0.00 100 1016.2
20260901053002 81 131 0.0 0.0 0.00 0.00 0.00 100 1016.3
20260901052516 81 131 0.0 0.0 0.00 0.00 0.00 100 1016.4
20260901051957 81 131 0.0 0.0 0.00 0.00 0.00 100 1016.3
20260901051454 81 131 0.0 0.0 0.00 0.00 0.00 100 1016.3
20260901050954 81 131 0.0 0.0 0.00 0.00 0.00 100 1016.4
20260901050445 81 131 0.0 0.0 0.00 0.00 0.00 100 1016.4
20260901045939 81 131 0.0 0.0 0.00 0.00 0.00 100 1016.4
20260901045427 81 131 0.0 0.0 0.00 0.00 0.00 100 1016.5
20260901044918 81 131 0.0 0.0 0.00 0.00 0.00 100 1016.5
20260901044413 81 131 0.0 0.0 0.00 0.00 0.00 100 1016.5
20260901043908 82 131 0.0 0.0 0.00 0.00 0.00 100 1016.5
20260901043410 82 131 0.0 0.0 0.00 0.00 0.00 100 1016.5
20260901042858 82 131 0.0 0.0 0.00 0.00 0.00 100 1016.5
20260901042350 82 131 0.0 0.0 0.00 0.00 0.00 100 1016.6
20260901042338 82 131 0.0 0.0 0.00 0.00 0.00 100 1016.6
20260901041333 82 131 0.0 0.0 0.00 0.00 0.00 100 1016.6
20260901040824 82 131 0.0 0.0 0.00 0.00 0.00 100 1016.6
20260901040308 83 131 0.0 0.0 0.00 0.00 0.00 100 1016.5
20260901035804 83 131 0.0 0.0 0.00 0.00 0.00 100 1016.6
20260901035527 83 131 0.0 0.0 0.00 0.00 0.00 100 1016.6
20260901035020 83 131 0.0 0.0 0.00 0.00 0.00 100 1016.6
20260901034240 83 131 0.0 0.0 0.00 0.00 0.00 100 1016.5
20260901033742 83 131 0.0 0.0 0.00 0.00 0.00 100 1016.6
20260901033230 83 131 0.0 0.0 0.00 0.00 0.00 100 1016.5
20260901032723 83 131 0.0 0.0 0.00 0.00 0.00 100 1016.4
20260901032215 83 131 0.0 0.0 0.00 0.00 0.00 100 1016.3
20260901031707 83 131 0.0 0.0 0.00 0.00 0.00 100 1016.4
20260901031209 83 131 0.0 0.0 0.00 0.00 0.00 100 1016.4
20260901030652 83 131 0.0 0.0 0.00 0.00 0.00 100 1016.4
20260901030159 83 131 0.0 0.0 0.00 0.00 0.00 100 1016.4
20260901025636 83 131 0.0 0.0 0.00 0.00 0.00 100 1016.3
20260901025133 83 131 0.0 0.0 0.00 0.00 0.00 100 1016.4
20260901024618 83 131 0.0 0.0 0.00 0.00 0.00 100 1016.4